FW7632 Weather Reports


Display with metric or nautical units.
time (UTC)temp
F
wind
direction
speed
MPH
gust
MPH
rain 1hr
in
rain 24hr
in
rain mn
in
humidity
%
barometer
mb
20260906040017 63 9 0.0 2.0 0.00 0.00 0.00 1 1013.0
20260906034516 63 9 0.0 2.0 0.00 0.00 0.00 1 1012.9
20260906033008 63 9 0.0 2.0 0.00 0.00 0.00 1 1012.8
20260906031503 64 9 0.0 4.0 0.00 0.00 0.00 1 1012.7
20260906030109 64 9 0.0 2.0 0.00 0.00 0.00 1 1012.6
20260906024555 64 9 0.0 3.0 0.00 0.00 0.00 1 1012.7
20260906023105 65 9 0.0 2.0 0.00 0.00 0.00 1 1012.7
20260906021547 65 9 0.0 1.0 0.00 0.00 0.00 1 1012.6
20260906020043 66 9 0.0 2.0 0.00 0.00 0.00 1 1012.5
20260906014550 67 9 1.0 2.0 0.00 0.00 0.00 1 1012.3
20260906013034 67 9 0.0 2.0 0.00 0.00 0.00 1 1012.1
20260906011530 67 9 0.0 2.0 0.00 0.00 0.00 1 1012.2
20260906010025 68 9 0.0 3.0 0.00 0.00 0.00 1 1012.2
20260906004520 68 9 0.0 4.0 0.00 0.00 0.00 1 1012.1
20260906003016 69 9 0.0 2.0 0.00 0.00 0.00 1 1011.8
20260906001512 69 9 1.0 5.0 0.00 0.00 0.00 1 1011.7
20260906000007 70 9 0.0 3.0 0.00 0.00 0.00 5 1011.6
20260905234502 71 9 1.0 2.0 0.00 0.00 0.00 15 1011.5
20260905233059 71 34 2.0 4.0 0.00 0.00 0.00 24 1011.6
20260905231555 72 9 2.0 8.0 0.00 0.00 0.00 29 1011.5
20260905230050 73 347 1.0 5.0 0.00 0.00 0.00 33 1011.4
20260905224600 73 9 1.0 9.0 0.00 0.00 0.00 35 1011.4
20260905223041 74 350 2.0 9.0 0.00 0.00 0.00 37 1011.2
20260905221541 74 360 1.0 5.0 0.00 0.00 0.00 37 1011.1
20260905220032 74 80 2.0 7.0 0.00 0.00 0.00 36 1010.9
20260905214527 74 349 1.0 4.0 0.00 0.00 0.00 37 1010.8
20260905213023 74 349 3.0 6.0 0.00 0.00 0.00 39 1010.6
20260905211523 74 344 1.0 5.0 0.00 0.00 0.00 39 1010.6
20260905210014 75 325 3.0 10.0 0.00 0.00 0.00 40 1010.5
20260905204510 76 19 4.0 8.0 0.00 0.00 0.00 41 1010.4
20260905203005 77 355 2.0 12.0 0.00 0.00 0.00 40 1010.5
20260905201501 79 327 3.0 10.0 0.00 0.00 0.00 40 1010.6
20260905200059 79 355 3.0 10.0 0.00 0.00 0.00 40 1010.6
20260905194552 78 304 3.0 10.0 0.00 0.00 0.00 39 1010.5
20260905193047 77 11 2.0 8.0 0.00 0.00 0.00 39 1010.5
20260905191546 77 331 2.0 5.0 0.00 0.00 0.00 40 1010.6
20260905190049 77 340 2.0 6.0 0.00 0.00 0.00 39 1010.7
20260905184550 75 355 3.0 8.0 0.00 0.00 0.00 39 1010.7
20260905183031 75 346 1.0 6.0 0.00 0.00 0.00 39 1010.6
20260905181527 75 333 3.0 8.0 0.00 0.00 0.00 38 1010.7
20260905180023 76 334 3.0 8.0 0.00 0.00 0.00 39 1010.6
20260905174518 76 17 2.0 8.0 0.00 0.00 0.00 38 1010.5
20260905173017 76 302 1.0 9.0 0.00 0.00 0.00 38 1010.7
20260905171513 76 105 2.0 6.0 0.00 0.00 0.00 37 1010.8
20260905170011 75 308 1.0 6.0 0.00 0.00 0.00 36 1011.0
20260905164505 75 340 2.0 6.0 0.00 0.00 0.00 35 1011.0
20260905163100 76 17 2.0 5.0 0.00 0.00 0.00 34 1011.0
20260905161556 76 341 3.0 9.0 0.00 0.00 0.00 33 1011.0
20260905160052 75 325 3.0 8.0 0.00 0.00 0.00 31 1011.2
20260905154549 75 36 4.0 8.0 0.00 0.00 0.00 32 1011.3
20260905153054 75 321 1.0 9.0 0.00 0.00 0.00 27 1011.3
20260905151541 73 343 3.0 10.0 0.00 0.00 0.00 22 1011.3
20260905150034 72 23 5.0 10.0 0.00 0.00 0.00 15 1011.5
20260905144529 73 26 3.0 10.0 0.00 0.00 0.00 14 1011.5
20260905143025 72 350 4.0 9.0 0.00 0.00 0.00 2 1011.4
20260905141522 70 12 4.0 13.0 0.00 0.00 0.00 1 1011.5
20260905140016 69 46 2.0 10.0 0.00 0.00 0.00 1 1011.5
20260905134512 67 329 2.0 5.0 0.00 0.00 0.00 1 1011.5
20260905133006 65 254 2.0 5.0 0.00 0.00 0.00 1 1011.6
20260905131501 64 238 1.0 3.0 0.00 0.00 0.00 1 1011.4
20260905130100 63 238 0.0 3.0 0.00 0.00 0.00 1 1011.5
20260905124553 63 217 0.0 2.0 0.00 0.00 0.00 1 1011.9
20260905123049 62 236 1.0 2.0 0.00 0.00 0.00 1 1012.1
20260905121545 61 250 0.0 4.0 0.00 0.00 0.00 1 1012.0
20260905120043 61 236 0.0 2.0 0.00 0.00 0.00 1 1011.9
20260905114536 61 247 0.0 1.0 0.00 0.00 0.00 1 1011.3
20260905113031 60 231 0.0 1.0 0.00 0.00 0.00 1 1011.2
20260905111547 59 227 0.0 0.0 0.00 0.00 0.00 1 1011.3
20260905110026 59 238 0.0 2.0 0.00 0.00 0.00 1 1011.1
20260905104517 59 238 1.0 3.0 0.00 0.00 0.00 1 1010.8
20260905103016 59 238 0.0 4.0 0.00 0.00 0.00 1 1010.6
20260905101509 59 238 0.0 0.0 0.00 0.00 0.00 1 1010.4
20260905100007 60 238 0.0 1.0 0.00 0.00 0.00 1 1010.3
20260905094600 60 238 0.0 1.0 0.00 0.00 0.00 1 1010.2
20260905093057 60 238 0.0 1.0 0.00 0.00 0.00 1 1010.2
20260905091553 60 238 0.0 1.0 0.00 0.01 0.00 1 1010.2
20260905090048 60 238 0.0 1.0 0.00 0.01 0.00 1 1010.2
20260905084543 61 238 0.0 0.0 0.00 0.01 0.00 1 1010.1
20260905083039 61 238 0.0 2.0 0.00 0.01 0.00 1 1010.2
20260905081535 61 238 0.0 1.0 0.00 0.01 0.00 1 1010.3
20260905080030 62 238 0.0 0.0 0.00 0.01 0.00 1 1010.3
20260905074526 62 238 0.0 1.0 0.00 0.01 0.00 1 1010.3
20260905073024 62 238 0.0 2.0 0.00 0.01 0.00 1 1010.4
20260905071534 63 238 1.0 3.0 0.00 0.01 0.00 1 1010.4
20260905070012 63 238 0.0 2.0 0.00 0.01 0.00 1 1010.6
20260905064508 63 238 0.0 4.0 0.00 0.01 0.00 1 1010.6
20260905063004 63 273 2.0 6.0 0.00 0.01 0.00 1 1010.6
20260905061609 63 346 1.0 3.0 0.00 0.01 0.00 1 1010.8
20260905060055 63 346 0.0 1.0 0.00 0.01 0.00 1 1010.8
20260905054551 63 346 0.0 2.0 0.00 0.01 0.00 1 1010.8
20260905053115 63 346 0.0 2.0 0.00 0.01 0.00 1 1011.0
20260905051544 64 346 0.0 1.0 0.00 0.02 0.00 1 1011.0
20260905050038 64 346 0.0 1.0 0.00 0.02 0.00 1 1011.2
20260905044532 65 346 0.0 1.0 0.00 0.02 0.00 1 1011.3
20260905043029 66 346 0.0 0.0 0.00 0.02 0.00 1 1011.3
20260905041526 67 345 1.0 2.0 0.00 0.32 0.02 1 1011.3